Miscellaneous Local Product
Issued by NWS North Platte, NE

Home | Current Version | Previous Version | Text Only | Print | Product List | Glossary On
Versions: 1 2 3 4 5 6 7 8 9 10 11 12 13 14 15 16 17 18 19 20 21 22 23 24 25 26 27 28 29 30 31 32 33 34 35 36 37 38 39 40 41 42 43 44 45 46 47 48 49 50
000
AXUS43 KLBF 180510
MISLBF


WESTERN AND NORTH CENTRAL NEBRASKA HOURLY WEATHER ROUNDUP
NATIONAL WEATHER SERVICE NORTH PLATTE NE
1100 PM CST FRI NOV 17 2017

NOTE: "FAIR" INDICATES FEW OR NO CLOUDS BELOW 12,000 FEET WITH NO
SIGNIFICANT WEATHER AND/OR OBSTRUCTIONS TO VISIBILITY.

NOTE: STATIONS NOT REPORTING VARIABLES SUCH AS SKY/WEATHER OR
PRESSURE ARE PROVIDED BY RAWS AND APRS NETWORKS AND ARE NOT UNDER
NATIONAL WEATHER SERVICE QUALITY CONTROL.

...OBSERVATIONS IN AND NEAR THE EASTERN PANHANDLE OF NEBRASKA...

CITY           SKY/WX    TMP DP  RH WIND       PRES   REMARKS
PINE RIDGE     MOCLDY    37  34  89 CALM      29.84R
GORDON         CLOUDY    35  33  94 NW6       29.81R WCI  30
CHADRON        CLOUDY    37  35  92 NW9       29.85R WCI  30
ALLIANCE       CLOUDY    36  34  92 N18       29.80R WCI  26
SIDNEY         CLOUDY    38  34  85 N18G28    29.79R WCI  28
CRESCENT LAKE    N/A     37  35  92 N16G24      N/A  WCI  27
$$

...OBSERVATIONS IN NORTHERN NEBRASKA AND FAR SOUTHERN SOUTH DAKOTA...

CITY           SKY/WX    TMP DP  RH WIND       PRES   REMARKS
WINNER         CLOUDY    40  35  83 N7        29.76F
VALENTINE      MIX PCPN  37  34  89 N6        29.79R WCI  32
THEDFORD       CLOUDY    38  36  91 N9        29.75R WCI  32
AINSWORTH      CLOUDY    37  35  94 N16       29.74F WCI  27
O`NEILL        CLOUDY    40  37  90 N12       29.73R WCI  32
ORD            CLOUDY    40  37  89 N10       29.67F WCI  33
BROKEN BOW     LGT RAIN  40  37  89 N13       29.70R WCI  32
VALENTINE NWR    N/A     35  33  92 N6G13       N/A  WCI  30
HALSEY           N/A     38  38  99 N6          N/A  WCI  33
BUTTE            N/A     38  34  85 N10         N/A  WCI  31
CHAMBERS         N/A     39  37  93 N3          N/A
EWING            N/A     40  37  88 N8          N/A  WCI  34
$$

...OBSERVATIONS IN SOUTHWEST NEBRASKA AND FAR NORTHEAST COLORADO...

CITY           SKY/WX    TMP DP  RH WIND       PRES   REMARKS
HOLYOKE        FAIR      43  39  87 W8        29.75R
OGALLALA       CLOUDY    42  40  93 CALM      29.74R
NORTH PLATTE   LGT RAIN  41  38  89 N6        29.71R
MCCOOK         CLOUDY    43  39  86 N17       29.68S
LEXINGTON      RAIN      42  37  83 N6        29.70R
STAPLETON        N/A     37  35  94 CALM        N/A
GOTHENBURG       N/A     41  36  81 N3          N/A
CALLAWAY         N/A     39  37  92 NE8         N/A  WCI  33
$$

...OBSERVATIONS IN CENTRAL LINCOLN COUNTY AREA...

CITY           SKY/WX    TMP DP  RH WIND       PRES   REMARKS
N.P. AIRPORT   LGT RAIN  41  38  89 N6        29.71R
N.P. DOWNTOWN    N/A     40  38  92 CALM        N/A
N.P. SOUTHEAST   N/A     39  37  91 N3          N/A
N.P. HILLCREST   N/A     48  33  56 N9          N/A
$$

...SOME OBSERVATIONS FROM AROUND THE REGION...

CITY           SKY/WX    TMP DP  RH WIND       PRES   REMARKS
DENVER         LGT RAIN  39  33  79 W10       29.84R WCI  32
LIMON          FLURRIES  34  33  96 N25G35    29.82R WCI  21
ASPEN          LGT SNOW  27  23  85 N10G20    29.99F FOG     WCI  17
LARAMIE        CLOUDY    26  21  81 W20       29.90R WCI  12
CASPER         CLOUDY    26  24  92 S7        29.97R WCI  18
CHEYENNE       CLOUDY    33  25  72 N20G28    29.85R WCI  21
SCOTTSBLUFF    CLOUDY    39  29  67 NW16      29.84R WCI  30
GRAND ISLAND   RAIN      41  39  93 N20       29.67R
OMAHA          CLOUDY    48  41  76 N16       29.62R
SIOUX FALLS    CLOUDY    37  32  82 N8        29.72R WCI  31
PIERRE         LGT RAIN  38  34  85 W7        29.80R WCI  33
RAPID CITY     CLOUDY    38  29  70 NW17      29.83R WCI  28
BISMARCK       CLOUDY    29  26  89 SW7       29.80R WCI  22
KANSAS CITY    CLOUDY    58  57  97 SE6       29.43F FOG
HILL CITY      CLEAR     45  34  65 N21G33    29.64R
WICHITA        MOCLDY    66  43  43 SW10      29.40S
DODGE CITY     PTCLDY    50  37  61 N20G31    29.58R
OKLAHOMA CITY  CLOUDY    74  57  55 SW21G29   29.56F
DALLAS         CLOUDY    76  64  66 S25       29.69F
AMARILLO       PTCLDY    69  35  28 W22G30    29.71F
$$




USA.gov is the U.S. government's official web portal to all federal, state and local government web resources and services.